Location: Bernay
(48.6766°N, 2.9386°E)
Time: 14:16:46
(UTC+00:00)

USA 267 - Visible Passes

Search period start: 11 April 2026 00:00
Search period end: 21 April 2026 00:00
Orbit: 1101 x 1107 km, 123.0° (Epoch: 10 January)

Date Brightness Start Highest point End Pass type
(mag) Time Alt. Az. Time Alt. Az. Time Alt. Az.
11 Apr 3.5 00:41:44 10° ENE 00:47:23 57° ESE 00:47:23 57° ESE visible
11 Apr 3.6 02:24:50 10° NE 02:31:16 60° NNW 02:34:43 29° W visible
11 Apr 4.2 04:07:35 10° ENE 04:13:42 43° N 04:19:49 10° WNW visible
11 Apr 4.5 23:59:13 10° ENE 00:02:48 28° E 00:02:48 28° E visible
12 Apr 3.2 01:42:00 10° NE 01:48:37 85° NNW 01:50:09 57° WSW visible
12 Apr 4.0 03:25:03 10° ENE 03:31:17 48° NNW 03:37:29 10° W visible
12 Apr 5.3 23:17:30 10° E 23:18:14 12° E 23:18:14 12° E visible
13 Apr 3.3 00:59:13 10° ENE 01:05:34 62° SE 01:05:34 62° SE visible
13 Apr 3.6 02:42:19 10° NE 02:48:46 60° NNW 02:52:54 23° W visible
13 Apr 4.2 04:25:04 10° ENE 04:31:11 43° N 04:37:18 10° WNW visible
14 Apr 4.3 00:16:42 10° ENE 00:21:00 31° ESE 00:21:00 31° ESE visible
14 Apr 3.2 01:59:29 10° NE 02:06:05 85° NNW 02:08:20 45° WSW visible
14 Apr 4.0 03:42:32 10° ENE 03:48:46 48° NNW 03:54:59 10° W visible
14 Apr 5.2 23:34:58 10° E 23:36:26 14° E 23:36:26 14° E visible
15 Apr 3.2 01:16:42 10° ENE 01:23:13 62° SE 01:23:46 60° SSE visible
15 Apr 3.6 02:59:48 10° NE 03:06:15 60° NNW 03:11:06 18° W visible
16 Apr 4.1 00:34:11 10° ENE 00:39:13 34° ESE 00:39:13 34° ESE visible
16 Apr 3.2 02:16:59 10° NE 02:23:35 84° NNW 02:26:33 36° WSW visible
16 Apr 4.0 04:00:01 10° ENE 04:06:15 48° NNW 04:12:28 10° W visible
16 Apr 5.1 23:52:26 10° E 23:54:40 16° E 23:54:40 16° E visible
17 Apr 3.3 01:34:11 10° ENE 01:40:43 63° SE 01:42:00 53° S visible
17 Apr 3.6 03:17:18 10° NE 03:23:44 60° NNW 03:29:21 14° W visible
18 Apr 4.0 00:51:40 10° ENE 00:57:27 36° SE 00:57:27 36° SE visible
18 Apr 3.2 02:34:27 10° NE 02:41:03 84° NNW 02:44:47 29° WSW visible
18 Apr 4.0 04:17:30 10° ENE 04:23:44 48° NNW 04:29:57 10° W visible
19 Apr 5.0 00:09:54 10° E 00:12:55 18° ESE 00:12:55 18° ESE visible
19 Apr 3.4 01:51:41 10° ENE 01:58:12 63° SE 02:00:15 44° SSW visible
19 Apr 3.6 03:34:46 10° NE 03:41:13 60° NNW 03:47:36 10° W visible
20 Apr 4.0 01:09:08 10° ENE 01:15:06 36° SE 01:15:43 35° SE visible
20 Apr 3.3 02:51:57 10° NE 02:58:33 84° NNW 03:03:04 22° WSW visible
